User: anonymous
Location: Unspecified
(0.0000°N, 0.0000°E)
Time: 12:13:45
(UTC+02:00)
Language:

Centaur D-1AR AC-41 - Orbit

View from above orbital plane
View from above orbital plane
View from above satellite
View from above satellite

Ground track
Ground track

The orbit data is extracted from the following two-line orbital elements,

1 10976U 78068B   14105.24159484 -.00000052  00000-0 -57001-3 0  3685
2 10976 021.3445 243.3029 7178364 266.5086 010.4527 02.22283715290479
Epoch (UTC): 15 April 2014 05:47:53
Eccentricity: 0.7178364
inclination: 21.3445°
perigee height: 620 km
apogee height: 36225 km
right ascension of ascending node: 243.3029°
argument of perigee: 266.5086°
revolutions per day: 2.22283715
mean anomaly at epoch: 10.4527°
orbit number at epoch: 29047

The dashed part of the orbit path shows where the satellite is in the earth's shadow,  

DLR